Akron Canton, OH

9:25 PM EST on February 24, 2018 (GMT -0500)
Akron-Canton Regional

Weather History for KCAK - March, 2013

Change the Weather History Date:

Saturday, March 9, 2013

  Actual Average Record
Temperature  
Mean Temperature 39 °F 35 °F  
Max Temperature 54 °F 44 °F 73 °F (2016)
Min Temperature 23 °F 26 °F 0 °F (1984)
Degree Days  
Heating Degree Days 26 30  
Month to date heating degree days 306 282  
Since 1 July heating degree days 4567 4826  
Cooling Degree Days 0 0  
Month to date cooling degree days 0 0  
Year to date cooling degree days 0 0  
Moisture  
Dew Point 27 °F    
Average Humidity 65    
Maximum Humidity 92    
Minimum Humidity 38    
Precipitation  
Precipitation 0.00 in 0.09 in 3.21 in (1964)
Month to date precipitation 0.26 0.78  
Year to date precipitation 4.45 5.70  
Snow  
Snow 0.00 in 0.30 in - ()
Month to date snowfall 3.4 3.0  
Since 1 July snowfall 39.8 39.5  
Snow Depth 0.00 in    
Sea Level Pressure  
Sea Level Pressure 30.30 in    
Wind  
Wind Speed 7 mph (ESE)    
Max Wind Speed 13 mph    
Max Gust Speed 18 mph    
Visibility 8 miles    
Events      
T = Trace of Precipitation, MM = Missing Value Source: NWS Daily Summary

Daily Weather History Graph

Daily Weather History Graph

Search for Another Location

Airport or City:

Trip Planner

Search our weather history database for the weather conditions in past years. The results will help you decide how hot, cold, wet, or windy it might be!

Date:

Astronomy

Mar. 09, 2013 Rise Set
Actual Time 6:46 AM EST 6:26 PM EST
Civil Twilight 6:19 AM EST 6:53 PM EST
Nautical Twilight 5:47 AM EST 7:25 PM EST
Astronomical Twilight 5:15 AM EST 7:57 PM EST
Moon 5:10 AM EST (3/9) 4:26 PM EST (3/9)
Length of Visible Light 12h 34m
Length of Day
11h 39m
Waning Crescent, 5% of the Moon is Illuminated
Mar 9
Waning Crescent
Mar 11
New
Mar 19
First Quarter
Mar 27
Full
Apr 3
Last Quarter

Hourly Weather History & Observations

Time (EST) Temp. Windchill Dew Point Humidity Pressure Visibility Wind Dir Wind Speed Gust Speed Precip Events Conditions
12:51 AM 25.0 °F 20.7 °F 21.9 °F 88% 30.43 in 6.0 mi NE 3.5 mph - N/A   Clear
1:51 AM 26.1 °F 20.5 °F 23.0 °F 88% 30.42 in 7.0 mi NE 4.6 mph - N/A   Clear
2:51 AM 26.1 °F 20.5 °F 23.0 °F 88% 30.40 in 7.0 mi ENE 4.6 mph - N/A   Clear
3:51 AM 25.0 °F 19.3 °F 23.0 °F 92% 30.38 in 7.0 mi NE 4.6 mph - N/A   Clear
4:51 AM 24.1 °F 19.7 °F 21.0 °F 88% 30.39 in 7.0 mi ENE 3.5 mph - N/A   Clear
5:51 AM 27.0 °F - 25.0 °F 92% 30.40 in 6.0 mi Calm Calm - N/A   Clear
6:51 AM 26.1 °F 19.4 °F 24.1 °F 92% 30.40 in 6.0 mi East 5.8 mph - N/A   Clear
7:51 AM 28.9 °F 21.1 °F 27.0 °F 92% 30.40 in 5.0 mi East 8.1 mph - N/A   Clear
8:51 AM 33.1 °F 27.7 °F 28.9 °F 85% 30.40 in 4.0 mi East 5.8 mph - N/A   Partly Cloudy
9:51 AM 37.9 °F 32.7 °F 28.0 °F 68% 30.39 in 7.0 mi ESE 6.9 mph - N/A   Mostly Cloudy
10:51 AM 41.0 °F 36.4 °F 28.9 °F 62% 30.37 in 9.0 mi ESE 6.9 mph - N/A   Mostly Cloudy
11:51 AM 42.1 °F 39.2 °F 28.0 °F 58% 30.36 in 8.0 mi ESE 4.6 mph - N/A   Mostly Cloudy
12:51 PM 46.0 °F 41.9 °F 30.0 °F 54% 30.33 in 8.0 mi SE 8.1 mph - N/A   Mostly Cloudy
1:51 PM 48.9 °F - 30.9 °F 50% 30.30 in 9.0 mi SE 6.9 mph - N/A   Scattered Clouds
2:51 PM 52.0 °F - 30.9 °F 45% 30.26 in 9.0 mi SSE 8.1 mph - N/A   Scattered Clouds
3:51 PM 53.1 °F - 30.0 °F 41% 30.24 in 10.0 mi South 5.8 mph - N/A   Mostly Cloudy
4:51 PM 54.0 °F - 28.9 °F 38% 30.22 in 10.0 mi South 9.2 mph - N/A   Scattered Clouds
5:51 PM 51.1 °F - 28.0 °F 41% 30.19 in 10.0 mi SE 10.4 mph - N/A   Mostly Cloudy
6:51 PM 48.9 °F - 28.0 °F 44% 30.19 in 10.0 mi SE 9.2 mph - N/A   Mostly Cloudy
7:51 PM 48.0 °F - 27.0 °F 44% 30.18 in 10.0 mi SE 10.4 mph - N/A   Mostly Cloudy
8:51 PM 46.0 °F 41.9 °F 28.0 °F 50% 30.17 in 10.0 mi SE 8.1 mph - N/A   Mostly Cloudy
9:51 PM 46.0 °F 41.4 °F 28.9 °F 51% 30.17 in 10.0 mi SSE 9.2 mph - N/A   Overcast
10:51 PM 46.9 °F - 28.9 °F 50% 30.16 in 10.0 mi SE 6.9 mph - N/A   Overcast
11:51 PM 46.9 °F - 28.9 °F 50% 30.14 in 10.0 mi SSE 10.4 mph - N/A   Overcast